Flag for Austria Weather past 2 weeks in Knittelfeld, Styria, Austria

Now
54 °F

Passing clouds.


Feels Like: 54 °F
Forecast: 47 / 79 °F
Wind: 2 mph from North

Location: Zeltweg

Current Time: Aug 28, 2014 at 10:00:28 AM

Latest Report: Aug 28, 2014 at 9:20 AM


Visibility: 25 mi

Pressure: 30.18 "Hg

Humidity: 77%

Dew point: 46 °F

Location of KnittelfeldLocation

Historic Weather in Knittelfeld — Graph

°F

Knittelfeld temperature yesterday

Maximum temperature yesterday: 73 °F (at 1:20 PM)
Minimum temperature yesterday: 52 °F (at 10:50 PM)
Average temperature yesterday: 64 °F

Past Weeks' High & Low Weather Summary

 TemperatureHumidityPressure
High84 °F (Aug 13, 5:50 PM)100% (Aug 13, 8:50 AM)30.18 "Hg (Aug 13, 8:50 AM)
Low43 °F (Aug 18, 5:50 AM)36% (Aug 27, 1:20 PM)29.71 "Hg (Aug 13, 1:50 PM)
Average60 °F73%29.99 "Hg
* Reported Aug 13 8:50 AM — Aug 28 8:50 AM, Knittelfeld, Weather by CustomWeather, © 2014

Note: Actual official high and low records may vary slightly from our data, if they occured in-between our weather recording intervals... More about our weather records

Advertising

Knittelfeld weather history for previous 24 hours

 ConditionsComfort  
Time TempWeatherWind HumidityBarometerVisibility
8:50 AM
Aug 28
54 °FPassing clouds.1 mph77%30.18 "Hg25 mi
8:20 AM50 °FScattered clouds.2 mph82%30.18 "Hg25 mi
7:50 AM48 °FScattered clouds.2 mph87%30.18 "Hg19 mi
7:20 AM46 °FPartly sunny.1 mph93%30.18 "Hg19 mi
6:50 AM46 °FPassing clouds.1 mph93%30.18 "Hg19 mi
5:50 AM45 °FPassing clouds.1 mph93%30.15 "Hg19 mi
4:50 AM43 °FPassing clouds.2 mph93%30.15 "Hg19 mi
10:50 PM
Aug 27
52 °FPassing clouds.5 mph82%30.09 "Hg25 mi
9:50 PM55 °FPassing clouds.2 mph77%30.07 "Hg25 mi
8:50 PM59 °FScattered clouds.3 mph63%30.04 "Hg25 mi
7:50 PM61 °FScattered clouds.10 mph59%30.01 "Hg25 mi
7:20 PM63 °FScattered clouds.12 mph56%30.01 "Hg25 mi
6:50 PM63 °FScattered clouds.16 mph52%29.98 "Hg25 mi
6:20 PM66 °FScattered clouds.15 mph49%29.98 "Hg25 mi
5:50 PM66 °FScattered clouds.13 mph46%29.98 "Hg25 mi
4:20 PM70 °FScattered clouds.12 mph40%29.95 "Hg25 mi
3:50 PM72 °FScattered clouds.13 mph41%29.92 "Hg25 mi
3:20 PM72 °FScattered clouds.12 mph36%29.92 "Hg25 mi
2:50 PM73 °FScattered clouds.14 mph36%29.92 "Hg25 mi
2:20 PM73 °FPartly sunny.12 mph36%29.89 "Hg25 mi
1:20 PM73 °FScattered clouds.13 mph36%29.89 "Hg25 mi
12:50 PM70 °FScattered clouds.18 mph43%29.89 "Hg25 mi
12:20 PM72 °FPartly sunny.16 mph38%29.89 "Hg25 mi
11:50 AM72 °FPartly sunny.15 mph38%29.86 "Hg25 mi
11:20 AM70 °FPartly sunny.18 mph38%29.86 "Hg22 mi
10:50 AM70 °FScattered clouds.13 mph43%29.86 "Hg22 mi
10:20 AM66 °FScattered clouds.2 mph73%29.86 "Hg19 mi
Weather by CustomWeather, © 2014

See weather overviewHow to use our weather pages